OSCAR 7 (AO-7) 1 07530U 74089B 26255.03416389 -.00000034 00000+0 79536-4 0 9998 2 07530 101.9921 269.1889 0012061 327.0247 55.9443 12.53699572371402 PHASE 3B (AO-10) 1 14129U 83058B 26253.81923402 -.00000299 00000+0 00000+0 0 9997 2 14129 25.9748 205.5539 5983154 139.1490 286.0555 2.05871418297257 UOSAT 2 (UO-11) 1 14781U 84021B 26255.13606107 .00001052 00000+0 11217-3 0 9992 2 14781 97.8164 219.7968 0006055 254.1132 105.9419 14.90984946270084 LUSAT (LO-19) 1 20442U 90005G 26255.04326206 .00000054 00000+0 36144-4 0 9999 2 20442 98.8826 279.2313 0010722 315.2882 44.7437 14.34143255914840 EYESAT A (AO-27) 1 22825U 93061C 26255.19429984 .00000055 00000+0 38018-4 0 9997 2 22825 98.6801 322.5414 0008020 197.7303 162.3601 14.30960661719444 ITAMSAT (IO-26) 1 22826U 93061D 26255.14772570 .00000059 00000+0 39054-4 0 9990 2 22826 98.6749 322.4215 0008869 180.9760 179.1407 14.31389464719757 RADIO ROSTO (RS15) 1 23439U 94085A 26255.20863703 -.00000046 00000+0 -97194-4 0 9991 2 23439 64.8162 162.4771 0159048 348.2182 11.5040 11.27584014305713 JAS-2 (FO-29) 1 24278U 96046B 26255.10831711 -.00000022 00000+0 15332-4 0 9992 2 24278 98.5171 92.0641 0349072 230.7620 126.2059 13.53277864484921 TECHSAT 1B (GO-32) 1 25397U 98043D 26254.95451838 .00000022 00000+0 29896-4 0 9993 2 25397 99.0149 249.9331 0001168 19.5424 340.5799 14.24442378463685 ISS (ZARYA) 1 25544U 98067A 26255.20788499 .00004954 00000+0 97729-4 0 9996 2 25544 51.6305 229.4056 0004952 131.3152 228.8264 15.49086570585247 PCSAT (NO-44) 1 26931U 01043C 26254.76675993 .00000055 00000+0 51594-4 0 9997 2 26931 67.0525 20.3307 0005727 272.1602 87.8844 14.31982736302844 SAUDISAT 1C (SO-50) 1 27607U 02058C 26255.07078318 .00000680 00000+0 97802-4 0 9994 2 27607 64.5512 220.1340 0072159 246.5319 112.8191 14.83206442277343 CUTE-1 (CO-55) 1 27844U 03031E 26255.00270450 .00000180 00000+0 96670-4 0 9990 2 27844 98.6770 262.4840 0008492 297.1642 62.8671 14.24379869204036 CUBESAT XI-IV (CO-57) 1 27848U 03031J 26254.54295535 .00000149 00000+0 84349-4 0 9998 2 27848 98.6802 261.6728 0008661 319.6234 40.4301 14.23658642203665 MOZHAETS 4 (RS22) 1 27939U 03042A 26255.34504808 .00000474 00000+0 81027-4 0 9997 2 27939 98.3476 82.1905 0011302 358.9695 122.3897 14.73595942228380 CUBESAT XI-V 1 28895U 05043F 26255.23195818 .00000862 00000+0 14297-3 0 9992 2 28895 98.3099 52.7515 0012812 291.2875 68.6964 14.72820621114564 CUTE-1.7+APD II (CO-65) 1 32785U 08021C 26255.20136048 .00002901 00000+0 18181-3 0 9993 2 32785 97.8369 238.5198 0010549 92.3685 267.8752 15.10142030998322 SEEDS II (CO-66) 1 32791U 08021J 26255.27624132 .00014242 00000+0 41526-3 0 9993 2 32791 97.7561 257.5410 0003314 46.9322 313.2198 15.35478283 632 YUBILEINY (RS30) 1 32953U 08025A 26255.25625100 .00000078 00000+0 48670-3 0 9990 2 32953 82.5034 301.2900 0020653 120.5163 239.7959 12.43182940830510 KKS-1 (KISEKI) 1 33499U 09002H 26255.21491985 .00000907 00000+0 11761-3 0 9992 2 33499 98.1160 179.0318 0008297 18.4067 341.7445 14.83308177949097 SWISSCUBE 1 35932U 09051B 26255.19125443 .00000657 00000+0 13900-3 0 9999 2 35932 98.3945 164.5631 0005841 311.2141 48.8556 14.62619689901872 BEESAT-1 1 35933U 09051C 26254.69908162 .00000549 00000+0 11974-3 0 9990 2 35933 98.3872 163.5146 0004647 332.7179 27.3777 14.61835697901824 ITUPSAT1 1 35935U 09051E 26255.17703776 .00000510 00000+0 11498-3 0 9999 2 35935 98.3952 163.0967 0007046 339.1682 20.9230 14.60547800901432 XIWANG-1 (HOPE-1) 1 36122U 09072B 26255.26278793 -.00000260 00000+0 -56454-3 0 9992 2 36122 100.4110 207.7313 0008038 38.5986 321.5700 13.16440564804468 O/OREOS (USA 219) 1 37224U 10062C 26255.04684851 .00001460 00000+0 14243-3 0 9990 2 37224 71.9678 243.5359 0016617 261.2792 98.6497 14.94026870129612 JUGNU 1 37839U 11058B 26255.03173999 .00000404 00000+0 71600-4 0 9991 2 37839 19.9597 140.8007 0018442 315.5794 74.5521 14.13797451771332 SRMSAT 1 37841U 11058D 26255.32259653 .00000361 00000+0 52237-4 0 9995 2 37841 19.9712 252.0502 0011976 82.9627 42.5778 14.11591864770140 STRAND-1 1 39090U 13009E 26255.08183471 .00000163 00000+0 69267-4 0 9999 2 39090 98.3969 73.2078 0008141 339.0402 21.0450 14.37205401709543 ZACUBE-1 (TSHEPISOSAT) 1 39417U 13066B 26254.84455247 .00004211 00000+0 32256-3 0 9996 2 39417 97.8127 217.6218 0040115 323.3488 36.4993 15.01781916693730 GOMX-1 1 39430U 13066Q 26255.27068492 .00001519 00000+0 23235-3 0 9996 2 39430 97.6439 90.2451 0128371 156.9967 203.7060 14.69687303682703 CUBEBUG-2 (LO-74) 1 39440U 13066AA 26254.86183589 .00002666 00000+0 24588-3 0 9992 2 39440 97.8974 204.2693 0058533 99.6019 261.1821 14.94246213689932 FUNCUBE-1 (AO-73) 1 39444U 13066AE 26254.93088510 .00005617 00000+0 34015-3 0 9997 2 39444 97.8376 228.3003 0033468 268.4236 91.3159 15.10560256692757 UWE-3 1 39446U 13066AG 26254.82629978 .00003815 00000+0 32433-3 0 9996 2 39446 97.8786 211.5510 0049309 32.6691 327.7564 14.97529230690540 UNISAT-6 1 40012U 14033C 26254.98975983 .00002236 00000+0 24141-3 0 9992 2 40012 97.7996 46.2567 0045552 140.9280 219.5242 14.88612963659071 DUCHIFAT-1 1 40021U 14033M 26255.15481579 .01087899 67853-3 14442-2 0 9999 2 40021 98.0175 328.4080 0007552 254.1549 105.8898 16.06818099669461 QB50P1 1 40025U 14033R 26255.30912317 .00005065 00000+0 24271-3 0 9992 2 40025 98.0960 272.6484 0006886 290.8837 69.1658 15.19420886666257 LILACSAT-2 1 40908U 15049K 26255.26679455 .00013897 00000+0 21488-3 0 9997 2 40908 97.4564 295.5521 0004584 299.8705 60.2093 15.54194529609266 FOX-1A (AO-85) 1 40967U 15058D 26254.73229613 .00001238 00000+0 11851-3 0 9999 2 40967 64.7755 9.9285 0137862 24.1561 336.5933 14.91379557126474 CAS-2T & KS-1Q 1 41847U 16066G 26255.22373585 .00000718 00000+0 11036-3 0 9997 2 41847 98.3758 329.9587 0340407 225.2887 132.0121 14.44836311517368 RADFXSAT (FOX-1B) 1 43017U 17073E 26255.09503257 .00006547 00000+0 27826-3 0 9993 2 43017 97.4563 120.5351 0148267 28.8403 332.0922 15.13867827478537 DIWATA-2B 1 43678U 18084H 26255.32194985 .00001030 00000+0 86425-4 0 9992 2 43678 98.1177 95.3660 0011349 236.3952 123.6188 15.00719427429280 ES'HAIL 2 1 43700U 18090A 26255.15680110 .00000129 00000+0 00000+0 0 9994 2 43700 0.0157 132.9156 0002558 71.9309 228.5636 1.00273689 28542 FOX-1CLIFF (AO-95) 1 43770U 18099N 26255.13523755 .00008688 00000+0 31684-3 0 9993 2 43770 97.4294 315.1223 0009224 48.9522 311.2513 15.28365600426499 ITASAT 1 43786U 18099AE 26255.07728702 .00005107 00000+0 23978-3 0 9992 2 43786 97.3942 304.8720 0013500 54.2745 305.9744 15.19994174426109 JY1SAT (JO-97) 1 43803U 18099AX 26255.12481585 .00012716 00000+0 36226-3 0 9997 2 43803 97.4039 318.3816 0004244 332.5372 27.5647 15.36219969426960 UWE-4 1 43880U 18111E 26254.79316819 .00036048 00000+0 60916-3 0 9993 2 43880 97.5821 187.5119 0007723 33.1993 326.9742 15.51497401424185 TIANYAN 01 1 44881U 19093C 26255.27844457 .00000482 00000+0 60222-4 0 9997 2 44881 97.7466 325.3583 0013996 154.6127 205.5780 14.86628674364359 RS-44 & BREEZE-KM R/B 1 44909U 19096E 26255.09694762 .00000020 00000+0 41209-4 0 9995 2 44909 82.5176 281.9576 0216494 301.3360 56.6711 12.79749307313469 SALSAT 1 46495U 20068K 26254.97802254 .00005968 00000+0 20261-3 0 9991 2 46495 97.8880 263.4175 0009469 9.1845 350.9566 15.30885844328635 XW-3 (CAS-9) 1 50466U 21131B 26255.31240537 .00000318 00000+0 11184-3 0 9993 2 50466 98.4980 347.2283 0003958 179.7978 180.3213 14.41423031247669 GREENCUBE (IO-117) 1 53109U 22080E 26255.02938321 -.00000003 00000+0 00000+0 0 9990 2 53109 70.1217 268.0398 0009219 270.7714 89.1889 6.42583747 97648 UMKA 1 (RS40S) 1 57172U 23091G 26255.31434203 .00004195 00000+0 18839-3 0 9997 2 57172 97.4963 313.6871 0012823 168.1744 191.9796 15.21651658177252 CUBESX-HSE 3 (RS42S) 1 57178U 23091N 26255.29415504 .00009657 00000+0 30358-3 0 9991 2 57178 97.5010 322.0656 0011231 137.6088 222.6024 15.33130551177760 MONITOR-3 (RS58S) 1 57180U 23091Q 26255.26074086 .00007341 00000+0 26012-3 0 9997 2 57180 97.5000 319.4013 0012093 146.3105 213.8906 15.29344807177591 MONITOR-4 (RS57S) 1 57182U 23091S 26255.30018768 .00007302 00000+0 25802-3 0 9992 2 57182 97.4994 319.4171 0012084 146.4318 213.7690 15.29437559177604 MONITOR-2 (RS39S) 1 57184U 23091U 26255.25220318 .00003437 00000+0 16454-3 0 9992 2 57184 97.4985 312.9716 0011470 161.6407 198.5244 15.19581154177172 SVYATOBOR 1 (RS60S) 1 57187U 23091X 26255.26406646 .00006534 00000+0 24251-3 0 9991 2 57187 97.5007 319.6028 0010166 138.8905 221.3102 15.27884336177604 VIZARD-METEO (RS38S) 1 57189U 23091Z 26255.23960152 .00012816 00000+0 33863-3 0 9996 2 57189 97.5016 326.5934 0008101 116.2076 244.0003 15.38540074178067 POLYTECH-UNIVERSE 3 (R*) 1 57191U 23091AB 26255.26718489 .00003337 00000+0 15868-3 0 9999 2 57191 97.4961 312.4914 0015208 179.9275 180.1965 15.19798831177176 UTMN 2 (RS27S) 1 57203U 23091AP 26255.26540559 .00009961 00000+0 30548-3 0 9995 2 57203 97.5009 323.7751 0008781 124.8559 235.3510 15.33937625177889 KUZGTU 1 (RS47S) 1 57217U 23091AV 26255.30204311 .00008648 00000+0 28545-3 0 9993 2 57217 97.4982 320.7402 0011405 141.8935 218.3115 15.31597625177700 SONATE-2 1 59112U 24043Q 26254.94141097 .00045546 00000+0 45294-3 0 9995 2 59112 97.5613 51.1607 0005266 236.3652 123.7105 15.65593639141431 MESAT1 1 60209U 24125G 26255.12268243 .00082567 00000+0 55548-3 0 9996 2 60209 97.2113 115.2160 0005637 233.1334 126.9415 15.74903449123198 GRBBETA 1 60237U 24128C 26255.14709039 .00001946 00000+0 14212-3 0 9990 2 60237 61.9882 271.0415 0027965 153.7625 206.4892 15.07159723119374 OOV-CUBE (TUBSAT-30) 1 60240U 24128F 26255.07927958 .00001120 00000+0 97362-4 0 9990 2 60240 61.9933 282.5109 0032426 153.9439 206.3293 15.03087611119179 COLIBRI-S (RS67S) 1 61746U 24199M 26255.31074042 .00019026 00000+0 32641-3 0 9996 2 61746 97.2814 130.1055 0006709 338.7619 21.3354 15.51202303150906 HORS 3 (RS81S) 1 61753U 24199U 26255.30828255 .00036520 00000+0 43008-3 0 9993 2 61753 97.2806 133.2057 0003549 346.0494 14.0665 15.61309875151125 HORS 4 (RS82S) 1 61754U 24199V 26255.31577072 .00059473 00000+0 51229-3 0 9999 2 61754 97.2734 135.1480 0001869 340.0851 20.0338 15.69115341151261 SIT-2086 1 61764U 24199AF 26255.26352362 .00038532 00000+0 48758-3 0 9993 2 61764 97.2763 133.3328 0003457 316.4569 43.6414 15.59409945147977 ALTAIR (RS65S) 1 61779U 24199AW 26255.30834288 .00008331 00000+0 22100-3 0 9993 2 61779 97.2880 124.1128 0012147 1.4342 358.6937 15.38489415150504 ASRTU-1 (AO-123) 1 61781U 24199AY 26255.25169970 .00005902 00000+0 16588-3 0 9993 2 61781 97.2850 123.1433 0013446 4.1365 355.9988 15.36809081147291 SAMSAT-IONOSPHERE (RS7*) 1 61784U 24199BB 26255.26762334 .00054947 00000+0 53249-3 0 9998 2 61784 97.2760 133.6489 0004497 334.3347 25.7689 15.66206844151156 RTU MIREA 1 (RS51S) 1 61785U 24199BC 26255.09261222 .00095537 00000+0 70351-3 0 9993 2 61785 97.2743 134.9136 0002960 333.5494 26.5618 15.72761636148078 LASARSAT 1 62391U 24247Q 26255.03457442 .00034352 00000+0 56378-3 0 9997 2 62391 44.9719 132.2111 0008733 184.2264 175.8556 15.51841192 96780 CROCUBE 1 62394U 24247T 26254.06680705 .00040936 00000+0 60575-3 0 9991 2 62394 44.9695 133.3082 0009251 188.0193 172.0553 15.54622235 96687 TEVEL2-4 1 63213U 25052D 26255.14951009 .00014383 00000+0 39356-3 0 9995 2 63213 97.3770 151.8048 0003932 124.5110 235.6506 15.37448770 83462 TEVEL2-5 1 63214U 25052E 26254.98583850 .00015550 00000+0 42837-3 0 9997 2 63214 97.3768 151.5610 0003821 125.8478 234.3122 15.37221653 83436 TEVEL2-6 1 63215U 25052F 26254.67462695 .00015932 00000+0 43938-3 0 9994 2 63215 97.3769 151.2330 0003707 126.4618 233.6969 15.37182525 83389 TEVEL2-1 1 63217U 25052H 26254.67147977 .00015466 00000+0 43546-3 0 9996 2 63217 97.3749 150.7447 0003532 138.3296 221.8218 15.36542255 83365 TEVEL2-3 1 63218U 25052J 26254.66240371 .00015543 00000+0 43659-3 0 9999 2 63218 97.3752 150.7708 0003260 134.6279 225.5231 15.36618213 83362 TEVEL2-2 1 63219U 25052K 26255.12698359 .00015625 00000+0 43954-3 0 9994 2 63219 97.3748 151.2053 0003480 137.3458 222.8057 15.36569329 83437 OTP-2 1 63235U 25052AB 26254.67085481 .00006186 00000+0 25066-3 0 9993 2 63235 97.3738 145.8147 0005120 201.7884 158.3137 15.25004143 83044 TEVEL2-9 1 63237U 25052AD 26255.15767609 .00012169 00000+0 36784-3 0 9995 2 63237 97.3805 150.4081 0005846 170.5731 189.5622 15.34354133 83355 TEVEL2-7 1 63238U 25052AE 26255.15190597 .00011684 00000+0 35737-3 0 9990 2 63238 97.3805 150.2780 0005810 172.2852 187.8481 15.33991759 83347 TEVEL2-8 1 63239U 25052AF 26255.16089206 .00011522 00000+0 35256-3 0 9993 2 63239 97.3813 150.2614 0005802 172.1368 187.9967 15.33981526 83346 INNOSAT 16 (RS92S7) 1 64878U 25155C 26255.22065694 .00003986 00000+0 15644-3 0 9993 2 64878 97.4672 222.1728 0008644 232.6534 127.3917 15.26284839 93944 GEOSCAN 6 (RS92S6) 1 64879U 25155D 26255.24395546 .00007376 00000+0 24368-3 0 9998 2 64879 97.4658 224.2776 0006043 214.5919 145.4930 15.31667392 94089 GEOSCAN 1 (RS92S1) 1 64880U 25155E 26255.20855674 .00008385 00000+0 27046-3 0 9996 2 64880 97.4653 224.4741 0005931 213.8579 146.2284 15.32396616 94090 239ALFEROV (RS61S) 1 64881U 25155F 26255.23408554 .00011165 00000+0 32951-3 0 9992 2 64881 97.4647 225.3878 0005441 208.8610 151.2333 15.35140120 94159 GEOSCAN 2 (RS92S2) 1 64890U 25155Q 26255.18776387 .00008288 00000+0 26532-3 0 9998 2 64890 97.4652 224.6385 0005791 196.8211 163.2840 15.32642149 94107 GEOSCAN 5 (RS92S5) 1 64891U 25155R 26255.20604731 .00011339 00000+0 33160-3 0 9991 2 64891 97.4641 225.5284 0004312 211.8274 148.2710 15.35429866 94166 GEOSCAN 4 (RS92S4) 1 64892U 25155S 26255.24544427 .00010826 00000+0 31476-3 0 9999 2 64892 97.4647 225.6460 0004211 210.4368 149.6631 15.35626042 94170 GEOSCAN 3 (RS92S3) 1 64893U 25155T 26255.24809835 .00014497 00000+0 38735-3 0 9990 2 64893 97.4631 226.3649 0004077 205.8362 154.2680 15.38186421 94220 INNOSAT 3 (RS92S0) 1 64894U 25155U 26255.24762403 .00038682 00000+0 68139-3 0 9993 2 64894 97.4568 229.2810 0003518 172.0386 188.0921 15.50333463 94421 KNACKSAT-2 1 67683U 98067XZ 26255.31192122 .00056149 00000+0 48789-3 0 9994 2 67683 51.6258 213.5681 0007959 152.6345 207.5073 15.68476422 33916 MARINA 1 69920U 26156BD 26254.66792044 .00001782 00000+0 18056-3 0 9993 2 69920 97.7446 154.0320 0006136 302.2770 57.7854 14.92152354 9895